Regional Weather Roundup
Issued by NWS Northern Indiana

Home | Current Version | Previous Version | Text Only | Print | Product List | Glossary On
Versions: 1 2 3 4 5 6 7 8 9 10 11 12 13 14 15 16 17 18 19 20 21 22 23 24 25 26 27 28 29 30 31 32 33 34 35 36 37 38 39 40 41 42 43 44 45 46 47 48 49 50
000
ASUS43 KIWX 301910
RWRIWX

KIWX WEATHER ROUNDUP
NATIONAL WEATHER SERVICE NORTHERN INDIANA
200 PM EST FRI JAN 30 2015

NOTE: "FAIR" INDICATES FEW OR NO CLOUDS BELOW 12,000 FEET WITH NO
SIGNIFICANT WEATHER AND/OR OBSTRUCTIONS TO VISIBILITY.

* THESE STATIONS ARE NOT UNDER NWS QUALITY CONTROL. THEY ALSO MAY NOT
  REPORT WEATHER SUCH AS PRECIPITATION OR FOG.

INZ001>027-302000-
NORTHERN INDIANA

CITY           SKY/WX    TMP DP  RH WIND       PRES   REMARKS
GARY*          MOSUNNY   30  12  47 N12       30.49F WCI  21
VALPARAISO     CLOUDY    27  14  58 VRB5      30.47F WCI  22
MICHIGAN CITY* CLOUDY    28  10  47 N7        30.48F WCI  21
LAPORTE*       CLOUDY    28  17  63 NW7G17    30.47F WCI  21
KNOX*          CLOUDY    28   1  31 N8        30.46F WCI  20
SOUTH BEND     CLOUDY    26  16  65 N8        30.47F WCI  18
ELKHART*       FLURRIES  25  10  54 NW8       30.47F WCI  16
GOSHEN         CLOUDY    24  14  65 NW14      30.45F WCI  12
MONTICELLO*    CLOUDY    29  19  67 NW8       30.47F WCI  21
LOGANSPORT*    CLOUDY    28  18  64 N8        30.47F WCI  20
ROCHESTER*     CLOUDY    30  21  69 CALM      30.47F
WARSAW*        FLURRIES  27  16  63 NW9       30.46F WCI  17
ANGOLA*        MOSUNNY   21   9  58 NW8       30.42F WCI  12
FORT WAYNE     PTSUNNY   24  11  57 NW9       30.45F WCI  14
HUNTINGTON*    CLOUDY    26  10  51 NW8       30.45F WCI  18
PERU/GRISSOM   PTSUNNY   28  15  60 NW8       30.45F WCI  20
MARION*        CLOUDY    25  15  65 N7        30.46F WCI  18

$$
INZ028>050-302000-
CENTRAL INDIANA

CITY           SKY/WX    TMP DP  RH WIND       PRES   REMARKS
LAFAYETTE      PTSUNNY   29  16  58 NW6       30.48F WCI  23
KOKOMO*        CLOUDY    28  16  59 NW12      30.46F WCI  18
MUNCIE*        PTSUNNY   27  16  63 NW10      30.45F WCI  17
INDIANAPOLIS   PTSUNNY   29  15  56 N12       30.45F WCI  19

$$
MIZ043>046-050>051-056>058-064>065-071>073-077>080-302000-
SOUTHWEST LOWER MICHIGAN

CITY           SKY/WX    TMP DP  RH WIND       PRES   REMARKS
BATTLE CREEK   MOSUNNY   24   8  50 W8        30.43F WCI  15
BENTON HARBOR  LGT SNOW  23  16  74 VRB5      30.48F WCI  17
COLDWATER*     PTSUNNY   23   9  55 NW8       30.43S WCI  14
HILLSDALE*     PTSUNNY   20   7  56 NW7       30.39F WCI  12
HOLLAND        CLOUDY    24  10  55 NW6       30.48S WCI  17
GRAND RAPIDS   PTSUNNY   23   8  52 N7        30.44F WCI  15
KALAMAZOO      PTSUNNY   24  10  55 N12       30.45F WCI  13
STURGIS*       PTSUNNY   23  10  58 CALM      30.43F
THREE RIVERS*  PTSUNNY   24  10  55 CALM      30.46S

$$
OHZ001>008-015>018-024>025-302000-
NORTHWEST OHIO

CITY           SKY/WX    TMP DP  RH WIND       PRES   REMARKS
WAUSEON*       PTSUNNY   23   9  54 NW13      30.43F WCI  11
DEFIANCE       MOSUNNY   26  10  50 NW10      30.45S WCI  16
FINDLAY        PTSUNNY   23   9  55 N13       30.42S WCI  11
TOLEDO EXPRESS PTSUNNY   22   9  57 NW12      30.44S WCI  10
TOLEDO METCALF SUNNY     22   6  50 NW13      30.45S WCI  10
LIMA           MOSUNNY   24  11  57 N9        30.42S WCI  14

$$
AND FOR LAKE MICHIGAN COASTAL AND OPEN LAKE BUOY OBSERVATIONS

STATION/POSITION TEMP    WIND        PRES    VSBY  WAVE
                 AIR SEA DIR/SP/G                  HT/PER
                 (F)     (DEG/KT/KT) (MB)    (MI)  (FT/S)
CALUMET HARBOR    25      10/  9/ 11   N/A
MICHIGAN CITY     25     330/ 11/ 14   N/A
SAINT JOSEPH      24     360/  4/  7 1032.2F

$$
&&



USA.gov is the U.S. government's official web portal to all federal, state and local government web resources and services.